Вернуться в каталог

LUR-1

АктивенНаукаSSO
NORAD 60506·PAYLOAD·🇪🇸 Spain

Запущен Aug 16, 2024 с Vandenberg Space Force Base

Loading…

Ближайшие Пролёты (ближайшие 24 часа)

TLE

СвежийSource: Space-Track

Эпоха: Sep 13, 2026, 22:58 UTC

1 60506U 24149AQ  26256.95746429  .00005876  00000-0  19806-3 0  9997
2 60506  97.3677 335.1745 0003929  13.7051 346.4296 15.31111989115556

Отслеживайте LUR-1 в реальном времени с AllMySat

Download on the App Store